[[{"header":{"parameterUnit":"m.s-1","parameterCategory":1,"la1":30.2991,"la2":30.254,"lo1":-89.0895,"lo2":-89.0444,"dy":0.0017,"dx":0.0017,"nx":28,"ny":28,"refTime":"2024-10-20T03:00:00:Z","depth":0,"parameterNumber":2,"parameterNumberName":"U-component_of_WINDS"},"data":[0,0,0,0,0,0,0,0,0,0,0,0,0,0,0,0,0,0,0,0,0,0,0,0,0,0,0,0,0,0,0,0,0,0,0,0,0,0,0,0,0,0,0,0,0,0,0,0,0,0,0,0,0,0,0,0,0,0,-2.3245,-2.3245,0,-2.3287,-2.3287,-2.3288,-2.3207,-2.3204,-2.3201,-2.3199,-2.3243,-2.3247,-2.325,0,0,0,0,0,0,0,0,0,0,0,0,0,-2.3096,-2.31,-2.3245,-2.3245,-2.3246,-2.3287,-2.3287,-2.3288,-2.3207,-2.3204,-2.32,-2.3197,-2.3242,-2.3246,-2.325,0,0,0,0,0,0,0,0,0,0,0,0,0,-2.3152,-2.3101,-2.3245,-2.3211,-2.3208,-2.3286,-2.3287,-2.3288,-2.3208,-2.3204,-2.32,-2.3196,-2.324,-2.3246,-2.3251,-2.3365,0,0,-2.3268,-2.327,0,0,0,0,0,0,0,0,-2.3149,-2.3157,-2.3215,-2.3213,-2.321,-2.3237,-2.3251,-2.3314,-2.3209,-2.3208,-2.3199,-2.3194,-2.3244,-2.3249,-2.3266,-2.3368,-2.3369,-2.3268,-2.3272,-2.3274,-2.3276,0,0,0,0,0,0,0,-2.3145,-2.3155,-2.3261,-2.3216,-2.3213,-2.3193,-2.3197,-2.3262,-2.3248,-2.3208,-2.3202,-2.3208,-2.3242,-2.3261,-2.3266,-2.337,-2.3268,-2.3273,-2.3277,-2.3279,-2.3568,-2.3572,0,0,0,0,0,0,-2.3145,-2.3153,-2.326,-2.3263,-2.3169,-2.3199,-2.3203,-2.3233,-2.3247,-2.3246,-2.3211,-2.3204,-2.3253,-2.326,-2.3268,-2.3404,-2.3274,-2.3279,-2.3282,-2.3564,-2.3569,-2.3574,0,0,0,0,0,0,-2.3143,-2.3156,-2.3258,-2.3206,-2.3218,-2.3206,-2.324,-2.3236,-2.3254,-2.325,-2.3247,-2.3233,-2.3251,-2.326,-2.3342,-2.3404,-2.3282,-2.3287,-2.3559,-2.3566,-2.3572,-2.3676,0,0,0,0,0,0,-2.3139,-2.3155,-2.3199,-2.3208,-2.3221,-2.3332,-2.3244,-2.3239,-2.3264,-2.3254,-2.3269,-2.3268,-2.3248,-2.3334,-2.3347,-2.341,-2.3291,-2.3553,-2.3562,-2.3569,-2.3667,-2.3686,-2.3702,0,0,0,0,0,-2.3134,-2.3227,-2.3201,-2.3215,-2.3275,-2.3336,-2.3343,-2.3318,-2.3269,-2.3313,-2.331,-2.3268,-2.3395,-2.3343,-2.3357,-2.3422,-2.3549,-2.3559,-2.3569,-2.366,-2.3682,-2.3701,0,0,0,0,0,0,-2.3226,-2.3227,-2.3199,-2.3297,-2.3317,-2.3322,-2.3376,-2.3342,-2.3377,-2.3367,-2.3334,-2.3338,-2.3427,-2.3432,-2.3375,-2.3534,-2.3464,-2.3477,-2.3528,-2.3549,-2.3566,-2.3564,-2.3296,0,0,0,0,0,-2.3257,-2.3307,-2.3305,-2.3392,-2.3403,-2.3388,-2.3414,-2.3393,-2.3412,-2.342,-2.3423,-2.3444,-2.3488,-2.3518,-2.3559,-2.3667,-2.367,-2.3718,-2.3735,-2.3749,-2.3762,-2.3821,-2.3843,-2.3606,-2.3606,-2.3606,0,0,-2.3324,-2.333,-2.3364,-2.3411,-2.3424,-2.3476,-2.3396,-2.3455,-2.3494,-2.3429,-2.3507,-2.351,-2.3531,-2.3626,-2.3669,-2.3634,-2.3827,-2.3762,-2.3773,-2.3778,-2.3833,-2.3855,-2.3875,-2.3613,-2.3612,-2.3611,0,0,-2.3472,-2.3481,-2.3555,-2.3569,-2.3589,-2.3578,-2.3596,-2.3606,-2.3606,-2.3683,-2.3636,-2.3681,-2.3758,-2.3776,-2.3794,-2.3948,-2.3911,-2.3962,-2.4052,-2.411,-2.4128,-2.4145,-2.4202,-2.4222,-2.3974,-2.3974,-2.3974,0,-2.3552,-2.3629,-2.3598,-2.366,-2.3683,-2.3625,-2.3701,-2.3716,-2.3749,-2.3766,-2.3725,-2.3821,-2.3831,-2.3931,-2.3968,-2.3984,-2.4005,-2.3962,-2.4128,-2.4144,-2.4159,-2.4213,-2.4234,-2.398,-2.398,-2.3979,-2.3978,0,-2.3727,-2.3781,-2.3839,-2.3872,-2.39,-2.3969,-2.3949,-2.3981,-2.3957,-2.3951,-2.4031,-2.404,-2.4082,-2.4103,-2.408,-2.42,-2.4178,-2.4133,-2.4062,-2.4188,-2.4239,-2.4259,-2.3989,-2.3987,-2.3985,-2.3984,0,0,-2.3938,-2.3951,-2.3973,-2.3987,-2.4005,-2.4046,-2.4112,-2.4152,-2.4182,-2.4205,-2.4261,-2.4327,-2.4286,-2.4307,-2.4285,-2.4335,-2.4459,-2.4284,-2.4284,-2.4319,-2.4593,-2.4629,-2.4653,-2.4433,-2.4436,-2.4439,-2.4592,0,-2.4086,-2.42,-2.4173,-2.4286,-2.4336,-2.4281,-2.4339,-2.4356,-2.4351,-2.4393,-2.4387,-2.4436,-2.4377,-2.439,-2.4436,-2.4434,-2.4514,-2.4422,-2.4486,-2.4488,-2.4485,-2.4679,-2.4717,-2.486,-2.4611,-2.4614,-2.4617,0,-2.4276,-2.4306,-2.4424,-2.4433,-2.4453,-2.4506,-2.4541,-2.4581,-2.4599,-2.4592,-2.4616,-2.4584,-2.4649,-2.4576,-2.4667,-2.4605,-2.4629,-2.4631,-2.4636,-2.4644,-2.4563,-2.4694,-2.4905,-2.4928,-2.4647,-2.4645,-2.4642,0,-2.442,-2.449,-2.457,-2.4584,-2.4596,-2.4634,-2.4641,-2.4655,-2.4681,-2.4712,-2.4729,-2.4766,-2.4788,-2.4818,-2.4797,-2.4745,-2.4892,-2.4816,-2.489,-2.4891,-2.4926,-2.4925,-2.5147,-2.4937,-2.4937,-2.4936,-2.4936,0,-2.4591,-2.4665,-2.4635,-2.4685,-2.4767,-2.4735,-2.4817,-2.4818,-2.4831,-2.488,-2.4834,-2.4881,-2.4849,-2.4894,-2.4877,-2.4956,-2.4965,-2.4963,-2.4958,-2.4969,-2.497,-2.4986,-2.4977,-2.4942,-2.4941,-2.494,-2.4939,0,-2.4767,-2.475,-2.4834,-2.4838,-2.4841,-2.4901,-2.4905,-2.4951,-2.4942,-2.5005,-2.5017,-2.5004,-2.5054,-2.5035,-2.5088,-2.5077,-2.5179,-2.516,-2.5173,-2.517,-2.5245,-2.5239,-2.5489,-2.5521,-2.5287,-2.5289,-2.5291,0,-2.4879,-2.4935,-2.4945,-2.4975,-2.4985,-2.5032,-2.5059,-2.5029,-2.5058,-2.5083,-2.5126,-2.5172,-2.5207,-2.529,-2.5285,-2.5326,-2.5309,-2.5393,-2.5315,-2.5324,-2.5313,-2.5312,-2.5318,-2.541,-2.5413,-2.5415,-2.5417,0,-2.508,-2.5068,-2.5108,-2.5145,-2.5177,-2.5205,-2.5228,-2.5255,-2.5226,-2.5262,-2.5312,-2.5339,-2.5393,-2.544,-2.5476,-2.5483,-2.5447,-2.5441,-2.5461,-2.5474,-2.548,-2.548,-2.5219,-2.5436,-2.5434,-2.5433,-2.5432,-2.5431,-2.5229,-2.5277,-2.5292,-2.5338,-2.5352,-2.5375,-2.5419,-2.5415,-2.5456,-2.5498,-2.5477,-2.5536,-2.5552,-2.5597,-2.5609,-2.5655,-2.5622,-2.565,-2.5658,-2.5666,-2.5677,-2.547,-2.5661,-2.566,-2.566,-2.5659,-2.5659,0,-2.543,-2.5436,-2.5479,-2.5513,-2.5549,-2.5509,-2.5532,-2.5566,-2.5618,-2.5636,-2.5671,-2.573,-2.5774,-2.5772,-2.5814,-2.5851,-2.5835,-2.5863,-2.5862,-2.5865,-2.5703,-2.5683,-2.5875,-2.5875,-2.5875,-2.5875,-2.5875,-2.5875,-2.5539,-2.5619,-2.5609,-2.5695,-2.57,-2.5757,-2.5775,-2.5796,-2.581,-2.5877,-2.5914,-2.5911,-2.5922,-2.5963,-2.6003,-2.6001,-2.602,-2.6055,-2.6047,-2.5897,-2.5876,-2.5855,-2.5837,-2.6058,-2.6059,-2.6206,-2.6207,-2.6208]},{"header":{"parameterUnit":"m.s-1","parameterCategory":1,"la1":30.2991,"la2":30.254,"lo1":-89.0895,"lo2":-89.0444,"dy":0.0017,"dx":0.0017,"nx":28,"ny":28,"refTime":"2024-10-20T03:00:00:Z","depth":0,"parameterNumber":3,"parameterNumberName":"V-component_of_WINDS"},"data":[0,0,0,0,0,0,0,0,0,0,0,0,0,0,0,0,0,0,0,0,0,0,0,0,0,0,0,0,0,0,0,0,0,0,0,0,0,0,0,0,0,0,0,0,0,0,0,0,0,0,0,0,0,0,0,0,0,0,-3.3319,-3.332,0,-3.336,-3.3361,-3.3361,-3.3301,-3.3299,-3.3297,-3.3295,-3.3335,-3.3338,-3.3341,0,0,0,0,0,0,0,0,0,0,0,0,0,-3.3186,-3.3188,-3.3319,-3.332,-3.332,-3.336,-3.3361,-3.3361,-3.3302,-3.3299,-3.3297,-3.3294,-3.3334,-3.3337,-3.3341,0,0,0,0,0,0,0,0,0,0,0,0,0,-3.3237,-3.3189,-3.3319,-3.3295,-3.3294,-3.336,-3.3361,-3.3362,-3.3302,-3.3299,-3.3296,-3.3293,-3.3333,-3.3337,-3.3341,-3.3432,0,0,-3.3355,-3.3357,0,0,0,0,0,0,0,0,-3.3234,-3.3242,-3.3298,-3.3297,-3.3295,-3.3323,-3.3328,-3.3385,-3.3303,-3.3299,-3.3295,-3.3292,-3.3333,-3.3337,-3.3352,-3.3434,-3.3436,-3.3356,-3.3358,-3.336,-3.3362,0,0,0,0,0,0,0,-3.3231,-3.324,-3.3335,-3.3299,-3.3297,-3.3282,-3.3285,-3.3339,-3.3333,-3.3299,-3.3295,-3.3301,-3.3332,-3.3348,-3.3352,-3.3437,-3.3356,-3.336,-3.3362,-3.3364,-3.3595,-3.3598,0,0,0,0,0,0,-3.323,-3.3237,-3.3334,-3.3337,-3.3256,-3.3287,-3.3291,-3.3317,-3.3332,-3.3332,-3.3303,-3.3298,-3.3342,-3.3347,-3.3354,-3.3461,-3.336,-3.3365,-3.3367,-3.3591,-3.3596,-3.3599,0,0,0,0,0,0,-3.3228,-3.324,-3.3332,-3.3286,-3.3296,-3.3292,-3.3322,-3.3319,-3.3335,-3.3336,-3.3334,-3.3321,-3.3339,-3.3347,-3.3413,-3.3461,-3.3367,-3.3371,-3.3587,-3.3593,-3.3597,-3.3677,0,0,0,0,0,0,-3.3224,-3.3239,-3.3274,-3.3287,-3.3299,-3.3393,-3.3325,-3.3323,-3.3344,-3.3337,-3.3352,-3.3351,-3.3337,-3.3407,-3.3418,-3.3466,-3.3374,-3.3583,-3.359,-3.3596,-3.367,-3.3684,-3.3696,0,0,0,0,0,-3.322,-3.3294,-3.3276,-3.3288,-3.3343,-3.3396,-3.3402,-3.3386,-3.3348,-3.3383,-3.3383,-3.3351,-3.3454,-3.3414,-3.3426,-3.3476,-3.358,-3.3588,-3.3595,-3.3664,-3.3681,-3.3696,0,0,0,0,0,0,-3.3287,-3.3296,-3.3276,-3.3357,-3.3376,-3.3385,-3.3429,-3.3405,-3.3434,-3.3426,-3.3403,-3.3407,-3.3478,-3.3483,-3.3439,-3.3565,-3.3511,-3.3521,-3.3559,-3.3575,-3.3588,-3.3585,-3.3378,0,0,0,0,0,-3.3311,-3.3354,-3.3359,-3.343,-3.3441,-3.3434,-3.3456,-3.3441,-3.3459,-3.3467,-3.3472,-3.349,-3.3526,-3.3551,-3.3584,-3.367,-3.3672,-3.371,-3.3723,-3.3734,-3.3743,-3.3788,-3.3805,-3.3624,-3.3624,-3.3624,0,0,-3.3361,-3.3372,-3.34,-3.3444,-3.3457,-3.3501,-3.3441,-3.3489,-3.3521,-3.3474,-3.3537,-3.3541,-3.356,-3.3636,-3.367,-3.3643,-3.3794,-3.3744,-3.3752,-3.3756,-3.3798,-3.3815,-3.3831,-3.363,-3.3629,-3.3628,0,0,-3.3476,-3.3488,-3.3549,-3.3564,-3.3584,-3.3579,-3.3593,-3.3606,-3.3608,-3.3671,-3.3636,-3.3673,-3.3736,-3.3751,-3.3767,-3.3887,-3.3858,-3.3898,-3.3967,-3.4011,-3.4025,-3.4038,-3.4081,-3.4096,-3.3907,-3.3908,-3.3908,0,-3.3536,-3.3602,-3.3583,-3.3635,-3.3655,-3.3615,-3.3675,-3.369,-3.372,-3.3734,-3.3704,-3.3783,-3.3792,-3.3871,-3.3901,-3.3915,-3.393,-3.3897,-3.4025,-3.4037,-3.4049,-3.4089,-3.4105,-3.3912,-3.3912,-3.3911,-3.3911,0,-3.3674,-3.372,-3.3767,-3.3798,-3.3823,-3.3879,-3.3868,-3.3895,-3.3879,-3.3876,-3.394,-3.3951,-3.3985,-3.4003,-3.3987,-3.408,-3.4062,-3.4029,-3.3974,-3.4071,-3.4109,-3.4124,-3.3919,-3.3917,-3.3916,-3.3915,0,0,-3.3833,-3.3853,-3.3871,-3.3884,-3.3904,-3.3938,-3.3992,-3.4027,-3.4051,-3.4073,-3.4117,-3.4171,-3.414,-3.4158,-3.4143,-3.4182,-3.4276,-3.4144,-3.4144,-3.4168,-3.4379,-3.4404,-3.4423,-3.4257,-3.426,-3.4262,-3.4377,0,-3.3947,-3.4041,-3.4026,-3.4116,-3.4158,-3.412,-3.4167,-3.4183,-3.4182,-3.4217,-3.4215,-3.4254,-3.421,-3.4221,-3.4258,-3.4257,-3.4318,-3.4249,-3.4297,-3.4299,-3.4294,-3.4442,-3.4469,-3.4577,-3.4392,-3.4394,-3.4396,0,-3.4094,-3.4122,-3.4217,-3.423,-3.4247,-3.4289,-3.432,-3.4353,-3.4371,-3.4367,-3.4388,-3.4365,-3.4417,-3.4362,-3.4433,-3.4386,-3.4405,-3.4408,-3.4412,-3.4416,-3.4354,-3.445,-3.4611,-3.4628,-3.4419,-3.4417,-3.4416,0,-3.42,-3.4261,-3.4326,-3.4339,-3.4356,-3.4386,-3.4394,-3.4409,-3.4431,-3.4457,-3.4471,-3.4503,-3.452,-3.4545,-3.4531,-3.4492,-3.4605,-3.4548,-3.4603,-3.4604,-3.4629,-3.4628,-3.4795,-3.4641,-3.4641,-3.464,-3.464,0,-3.4329,-3.4389,-3.4374,-3.4414,-3.448,-3.4461,-3.4525,-3.4529,-3.4542,-3.4581,-3.455,-3.4587,-3.4567,-3.4602,-3.4591,-3.4652,-3.466,-3.4658,-3.4655,-3.4661,-3.4661,-3.4673,-3.4666,-3.4645,-3.4644,-3.4643,-3.4642,0,-3.4459,-3.4452,-3.452,-3.453,-3.4534,-3.4582,-3.459,-3.4627,-3.4623,-3.4673,-3.4684,-3.4678,-3.4718,-3.4707,-3.475,-3.4742,-3.4819,-3.4806,-3.4814,-3.4811,-3.4866,-3.4861,-3.5048,-3.5071,-3.4901,-3.4903,-3.4904,0,-3.4543,-3.4588,-3.4603,-3.4628,-3.4638,-3.4678,-3.47,-3.4683,-3.4708,-3.4731,-3.4765,-3.4802,-3.4831,-3.4896,-3.4895,-3.4928,-3.4915,-3.4978,-3.492,-3.4925,-3.4916,-3.4914,-3.4918,-3.499,-3.4992,-3.4994,-3.4995,0,-3.4691,-3.4685,-3.4719,-3.4753,-3.478,-3.4805,-3.4827,-3.4849,-3.4833,-3.4861,-3.4902,-3.4925,-3.4969,-3.5007,-3.5036,-3.5043,-3.5017,-3.5013,-3.5028,-3.5035,-3.5038,-3.5037,-3.4846,-3.5009,-3.5008,-3.5007,-3.5006,-3.5005,-3.48,-3.4839,-3.4856,-3.4895,-3.4909,-3.493,-3.4966,-3.4967,-3.5001,-3.5036,-3.5023,-3.507,-3.5086,-3.5123,-3.5134,-3.517,-3.5146,-3.5166,-3.5172,-3.5177,-3.5184,-3.5032,-3.5175,-3.5175,-3.5174,-3.5174,-3.5173,0,-3.4948,-3.4957,-3.4993,-3.5025,-3.5055,-3.5028,-3.505,-3.5077,-3.512,-3.5137,-3.5166,-3.5213,-3.5249,-3.5251,-3.5284,-3.5312,-3.5301,-3.5322,-3.5319,-3.5322,-3.5204,-3.5188,-3.533,-3.533,-3.533,-3.533,-3.533,-3.533,-3.5028,-3.5091,-3.5087,-3.5157,-3.5165,-3.5212,-3.5227,-3.5246,-3.526,-3.5314,-3.5344,-3.5345,-3.5356,-3.539,-3.5421,-3.5421,-3.5435,-3.546,-3.5455,-3.5345,-3.533,-3.5315,-3.53,-3.5463,-3.5463,-3.557,-3.5571,-3.5571]}]]